Wetterdaten: Februar 2016
Datum Temp Feuchte Luftdruck Regen Wind Richtung Sonnenschein UV Solar Windben
01.02.2016 9,3 C 93 % 1014,0 hPa 8,2 l/m 15,4 km/h SW 0,00 h 0,6 UV-I 28 W/m 42,7 km/h
02.02.2016 6,0 C 89 % 1011,2 hPa 11,2 l/m 8,5 km/h S-SW 0,25 h 0,5 UV-I 51 W/m 24,9 km/h
03.02.2016 3,3 C 88 % 1016,6 hPa 1,2 l/m 6,5 km/h W-SW 1,42 h 0,7 UV-I 112 W/m 26,9 km/h
04.02.2016 1,9 C 96 % 1020,7 hPa 6,4 l/m 3,0 km/h W-SW 0,00 h 0,5 UV-I 35 W/m 18,1 km/h
05.02.2016 5,5 C 97 % 1021,6 hPa 4,8 l/m 2,0 km/h S 0,00 h 0,0 UV-I 23 W/m 7,6 km/h
06.02.2016 7,7 C 85 % 1008,4 hPa 0,0 l/m 12,8 km/h S-SO 5,33 h 0,9 UV-I 180 W/m 22,1 km/h
07.02.2016 6,5 C 81 % 1001,6 hPa 0,0 l/m 9,1 km/h S 0,50 h 0,6 UV-I 64 W/m 25,0 km/h
08.02.2016 6,0 C 86 % 992,4 hPa 10,8 l/m 30,9 km/h S 1,00 h 0,7 UV-I 73 W/m 49,5 km/h
09.02.2016 2,9 C 91 % 986,0 hPa 8,2 l/m 15,8 km/h S 0,00 h 0,5 UV-I 48 W/m 37,0 km/h
10.02.2016 2,7 C 95 % 993,7 hPa 6,6 l/m 6,8 km/h S-SW 0,08 h 0,5 UV-I 37 W/m 23,4 km/h
11.02.2016 2,9 C 86 % 1003,3 hPa 0,8 l/m 4,5 km/h W 0,50 h 0,6 UV-I 82 W/m 12,9 km/h
12.02.2016 0,6 C 88 % 999,4 hPa 0,0 l/m 2,1 km/h S-SO 1,50 h 0,8 UV-I 120 W/m 4,8 km/h
13.02.2016 2,0 C 86 % 989,3 hPa 0,4 l/m 5,8 km/h SO 6,17 h 0,9 UV-I 215 W/m 12,9 km/h
14.02.2016 1,7 C 96 % 990,9 hPa 4,6 l/m 0,0 km/h O 0,08 h 0,5 UV-I 41 W/m 0,0 km/h
15.02.2016 -0,7 C 95 % 1018,8 hPa 1,0 l/m 2,7 km/h N 0,00 h 0,0 UV-I 23 W/m 9,3 km/h
16.02.2016 -3,6 C 89 % 1035,9 hPa 0,0 l/m 0,4 km/h SO 4,75 h 1,0 UV-I 187 W/m 1,2 km/h
17.02.2016 -0,2 C 87 % 1018,9 hPa 0,0 l/m 0,7 km/h SO 3,42 h 0,9 UV-I 159 W/m 4,8 km/h
18.02.2016 -1,0 C 93 % 1015,9 hPa 0,6 l/m 0,5 km/h S-SO 0,17 h 0,5 UV-I 44 W/m 1,2 km/h
19.02.2016 -0,5 C 91 % 1019,8 hPa 0,0 l/m 1,6 km/h W 1,25 h 0,8 UV-I 125 W/m 5,2 km/h
20.02.2016 5,0 C 95 % 1008,2 hPa 10,8 l/m 11,9 km/h S 0,00 h 0,5 UV-I 33 W/m 21,3 km/h
21.02.2016 9,0 C 95 % 1007,0 hPa 13,4 l/m 15,1 km/h SW 0,00 h 0,0 UV-I 33 W/m 41,5 km/h
22.02.2016 4,1 C 95 % 1005,8 hPa 15,2 l/m 5,6 km/h SW 0,00 h 0,6 UV-I 44 W/m 12,9 km/h
23.02.2016 2,8 C 92 % 1012,2 hPa 4,2 l/m 6,1 km/h W 0,92 h 0,9 UV-I 121 W/m 20,1 km/h
24.02.2016 0,3 C 91 % 1014,9 hPa 1,2 l/m 1,8 km/h W 4,17 h 1,1 UV-I 185 W/m 5,2 km/h
25.02.2016 0,5 C 91 % 1012,8 hPa 0,2 l/m 0,0 km/h W-SW 1,67 h 0,8 UV-I 122 W/m 1,2 km/h
26.02.2016 0,2 C 88 % 1012,2 hPa 0,0 l/m 0,5 km/h W 4,17 h 1,2 UV-I 225 W/m 3,6 km/h
27.02.2016 0,2 C 76 % 1011,6 hPa 0,0 l/m 0,7 km/h N-NO 7,50 h 1,2 UV-I 275 W/m 2,8 km/h
28.02.2016 0,6 C 74 % 1019,1 hPa 0,0 l/m 3,8 km/h N-NO 6,50 h 1,3 UV-I 228 W/m 12,9 km/h
29.02.2016 0,0 C 78 % 1022,3 hPa 0,0 l/m 2,2 km/h N-NO 7,58 h 1,4 UV-I 279 W/m 8,8 km/h
Min-Datum 16.02.16 27.02.16 09.02.16 19 Tage 03.02.16 - - - - 04.02.16
Min-Zeit 07:55 13:15 18:10 - 17:25 - - - - 11:25
Minimum -6,2 C 52 % 976,6 hPa - 0,0 km/h - - - - 0,0 km/h
Max-Datum 21.02.16 04.02.16 16.02.16 22.02.16 08.02.16 - 29.02.16 29.02.16 26.02.16 08.02.16
Max-Zeit 18:55 01:20 11:55 10:40 22:40 - 16:35 12:20 11:40 16:55
Maximum 10,8 C 100 % 1037,0 hPa 15,2 l/m 37,5 km/h
S
- 7,50 h 2,2 UV-I 689 W/m 70,8 km/h
S
Durchschnitt 2,6 C 89 % 1009,8 hPa #109,8 l/m 6,1 km/h S #58:55 h 0,8 UV-I 110 W/m 15,9 km/h

Durchschnitt Minimum Temp.0,1 C
Durchschnitt Maximum Temp.5,7 C